W7REA Weather Reports


time (UTC)temp
C
wind
direction
speed
KPH
gust
KPH
rain 1hr
cm
rain 24hr
cm
rain mn
cm
humidity
%
barometer
mb
20260504190047 11 360 4.8 17.7 0.00 0.00 0.00 43 1013.4
20260504184602 11 360 3.2 16.1 0.00 0.00 0.00 42 1013.4
20260504183043 12 360 4.8 16.1 0.00 0.00 0.00 41 1013.1
20260504181540 12 360 6.4 16.1 0.00 0.00 0.00 43 1013.1
20260504180042 12 360 6.4 17.7 0.00 0.00 0.00 42 1013.2
20260504174546 12 360 6.4 19.3 0.00 0.00 0.00 43 1013.4
20260504173043 12 360 6.4 17.7 0.00 0.00 0.00 43 1013.5
20260504171535 11 360 4.8 16.1 0.00 0.00 0.00 46 1013.4
20260504081541 10 360 0.0 3.2 0.00 0.00 0.00 48 1008.2
20260504044534 9 0 0.0 0.0 0.00 0.00 0.00 46 1009.2
20260504043034 10 0 0.0 0.0 0.00 0.00 0.00 45 1009.3
20260504041542 10 0 0.0 0.0 0.00 0.00 0.00 43 1009.4
20260504040045 10 0 0.0 0.0 0.00 0.00 0.00 43 1009.5
20260504034538 11 0 0.0 0.0 0.00 0.00 0.00 42 1009.7
20260504033048 11 0 0.0 0.0 0.00 0.00 0.00 40 1009.8
20260504031537 12 0 0.0 0.0 0.00 0.00 0.00 39 1009.7
20260504030035 13 0 0.0 0.0 0.00 0.00 0.00 37 1009.8
20260504024552 13 0 0.0 0.0 0.00 0.00 0.00 34 1009.6
20260504023038 15 0 0.0 3.2 0.00 0.00 0.00 32 1009.6
20260504021539 15 0 0.0 3.2 0.00 0.00 0.00 29 1009.4
20260504020034 16 0 0.0 6.4 0.00 0.00 0.00 27 1009.4
20260504014534 17 0 0.0 4.8 0.00 0.00 0.00 26 1009.5
20260504013048 18 0 0.0 8.0 0.00 0.00 0.00 25 1009.5
20260504011542 18 360 1.6 6.4 0.00 0.00 0.00 23 1009.7
20260504010035 20 0 1.6 6.4 0.00 0.00 0.00 22 1009.8
20260504004543 20 0 3.2 8.0 0.00 0.00 0.00 21 1009.9
20260504003034 21 280 3.2 16.1 0.00 0.00 0.00 19 1010.1
20260504001546 21 325 4.8 12.9 0.00 0.00 0.00 19 1010.3
20260504000043 22 258 1.6 16.1 0.00 0.00 0.00 20 1010.3
20260503234539 21 334 3.2 14.5 0.00 0.00 0.00 21 1010.4
20260503233035 21 348 1.6 12.9 0.00 0.00 0.00 21 1010.4
20260503231535 22 325 3.2 12.9 0.00 0.00 0.00 22 1010.5
20260503230044 21 0 1.6 12.9 0.00 0.00 0.00 23 1010.6
20260503224542 22 327 3.2 12.9 0.00 0.00 0.00 24 1010.6
20260503223039 22 327 4.8 20.9 0.00 0.00 0.00 24 1010.9
20260503221536 21 5 3.2 17.7 0.00 0.00 0.00 25 1010.9
20260503220038 21 352 4.8 17.7 0.00 0.00 0.00 22 1011.3
20260503214534 21 286 4.8 17.7 0.00 0.00 0.00 21 1011.4
20260503213044 21 360 3.2 12.9 0.00 0.00 0.00 26 1011.6
20260503211541 22 360 4.8 12.9 0.00 0.00 0.00 25 1011.7
20260503210036 21 360 4.8 24.1 0.00 0.00 0.00 26 1012.1
20260503204534 21 352 3.2 16.1 0.00 0.00 0.00 27 1012.1
20260503203042 20 360 1.6 9.7 0.00 0.00 0.00 28 1012.2
20260503201542 21 0 3.2 12.9 0.00 0.00 0.00 27 1012.5
20260503200041 20 360 3.2 16.1 0.00 0.00 0.00 29 1012.7
20260503194541 20 360 4.8 16.1 0.00 0.00 0.00 29 1012.8
20260503193041 19 360 3.2 8.0 0.00 0.00 0.00 32 1013.2
20260503191536 18 360 1.6 12.9 0.00 0.00 0.00 36 1013.4